Location: Vanderbilt Planetarium & Observatory
(40.9052°N, 73.3671°W)
Time: 06:33:37
(UTC-05:00)

Daily predictions for brighter satellites

Satellite Brightness Start Highest point End
(mag) Time Altitude Azimuth Time Altitude Azimuth Time Altitude Azimuth
CSL-04 Rocket 3.9 17:22:26 10° SSE 17:27:59 82° WSW 17:33:31 10° NNW
SKYMED 2 4.2 17:26:57 10° NNE 17:30:58 36° E 17:34:58 10° SSE
NOSS 3-4 (A) 3.9 17:24:29 10° NNW 17:31:34 76° NE 17:39:09 10° SE
NOSS 3-4 (C) 3.9 17:24:35 10° NNW 17:31:40 75° NE 17:39:16 10° SE
Okean 3 Rocket 4.1 17:29:19 10° SSW 17:33:49 67° W 17:38:19 10° N
AQUARIUS 4.4 17:29:46 10° S 17:34:15 76° WSW 17:38:46 10° NNW
Cosmos 2221 3.8 17:30:17 10° NNW 17:34:29 47° W 17:38:42 10° SSW
Cosmos 1300 3.1 17:31:02 10° NNW 17:34:51 70° W 17:38:38 10° S
YAOGAN 1 2.7 17:31:28 10° SSE 17:35:41 55° ENE 17:39:56 10° N
Cosmos 1328 3.8 17:32:36 10° S 17:36:37 78° E 17:40:39 10° N
Cosmos 1340 4.5 17:35:58 10° NE 17:37:39 12° ENE 17:39:18 10° E
BREEZE M DEB (TANK) 4.4 17:36:14 10° WSW 17:40:52 69° NNW 17:59:51 11° ENE
Cosmos 2151 3.9 17:38:06 10° SSE 17:41:47 29° E 17:45:30 10° NNE
Nadezhda 3 Rocket 4.5 17:39:05 10° SSE 17:44:54 40° E 17:50:45 10° NNE
FENGYUN 3A 3.9 17:40:47 10° SE 17:45:53 48° ENE 17:51:02 10° N
Cosmos 1703 3.5 17:46:33 10° SSE 17:50:23 48° E 17:54:14 10° NNE
IRS-1A Rocket 4.3 17:46:24 10° SSE 17:51:57 85° ENE 17:57:39 10° NNW
METEOR-M 4.1 17:46:47 10° SSE 17:52:08 87° ENE 17:57:31 10° NNW
Tiangong 1 2.8 17:55:42 10° W 17:57:44 22° SSW 17:59:44 10° SSE
Cosmos 44 Rocket 4.2 17:57:27 10° SW 18:01:57 46° NW 18:06:34 10° NNE
Cosmos 2098 Rocket 3.9 17:56:50 10° N 18:02:32 70° E 18:09:27 10° SSE
MOS 1 4.2 17:58:01 10° SSE 18:03:37 72° ENE 18:09:15 10° N
Cosmos 1408 Rocket 3.9 17:59:39 10° SSW 18:03:55 66° W 18:08:13 10° N
Cosmos 1515 Rocket 3.6 18:02:29 10° N 18:06:45 53° E 18:10:58 10° SSE
Cosmos 1570 Rocket 4.2 18:04:34 10° S 18:09:42 51° ESE 18:14:49 10° NNE
Cosmos 2082 Rocket 3.7 18:08:35 10° SE 18:11:54 16° E 18:11:54 16° E
ALOS 2.3 18:10:37 10° SSE 18:15:17 86° W 18:19:59 10° NNW
CZ-4C R/B 2.9 18:12:52 10° S 18:17:17 30° ESE 18:19:36 22° ENE
Cosmos 1500 Rocket 3.5 18:13:52 10° S 18:18:16 64° E 18:22:42 10° NNE
Meteor 2-15 4.5 18:12:56 10° S 18:18:53 57° E 18:24:49 10° NNE
COSMO-SKYMED 1 3.0 18:14:46 10° N 18:19:05 65° WNW 18:23:22 10° SSW
Cosmos 332 Rocket 3.9 18:17:09 10° SSW 18:22:03 84° WNW 18:27:00 10° NNE
ERBS 2.5 18:22:24 10° NW 18:25:42 49° NE 18:26:25 40° E
SL-27 R/B 2.9 18:23:09 10° S 18:26:23 38° ESE 18:26:42 37° E
Cosmos 1937 Rocket 4.2 18:24:21 10° N 18:29:00 31° ENE 18:30:10 28° E
Cosmos 1455 2.4 18:27:45 10° NNW 18:31:36 70° W 18:35:22 10° S
H-2A R/B 2.6 18:27:59 10° SSE 18:31:46 63° ENE 18:35:36 10° N
Cosmos 1833 Rocket 3.6 18:27:45 10° SSE 18:32:17 26° ESE 18:32:17 26° ESE
Cosmos 1743 Rocket 3.9 18:29:45 10° SSW 18:34:03 64° W 18:38:23 10° N
Cosmos 1626 4.4 18:31:40 10° SW 18:34:49 26° WNW 18:37:59 10° NNW
Cosmos 1656 4.3 18:30:18 10° N 18:35:12 32° ENE 18:35:58 31° ENE
COSMOS 2406 3.8 18:30:04 10° SW 18:35:41 59° WNW 18:41:21 10° NNE
NOAA 12 4.4 18:31:04 10° S 18:36:16 67° WSW 18:41:31 10° NNW
Cosmos 2369 4.1 18:33:51 10° N 18:39:14 40° ENE 18:41:01 32° E
Thor Agena Rocket 3.8 18:40:28 27° NE 18:42:58 45° E 18:47:54 10° S
Cosmos 2058 3.9 18:38:58 10° SSW 18:43:00 49° W 18:47:07 10° N
Cosmos 909 Rocket 4.1 18:36:23 10° NNW 18:43:07 80° WSW 18:49:20 10° SSE
Cosmos 1697 Rocket 3.7 18:40:13 10° N 18:44:05 26° NE 18:44:05 26° NE
Cosmos 2228 Rocket 4.0 18:41:11 10° NNW 18:45:38 52° W 18:50:04 10° S
Meteor 2-15 Rocket 4.3 18:41:00 10° S 18:47:07 80° E 18:53:14 10° N
Hubble Space Telescope 3.2 18:47:37 10° S 18:48:50 11° SSE 18:49:22 11° SSE
Lacrosse 5 1.8 18:43:51 10° SSW 18:48:53 67° SE 18:50:18 45° ENE
Meteor 2-10 Rocket 3.6 18:44:11 10° N 18:49:03 47° ENE 18:50:05 40° ESE
FengYun 1-2 T 4.2 18:49:37 10° SSE 18:55:15 87° WSW 19:00:53 10° NNW
ERS-2 3.2 18:54:30 10° S 18:58:02 45° W 19:01:36 10° NNW
Cosmos 1151 Rocket 4.3 18:55:58 10° NNW 19:00:05 41° W 19:04:11 10° SSW
RESURS DK-1 3.1 18:57:04 10° NNW 18:59:54 39° N 18:59:54 39° N
Cosmos 1437 4.2 18:58:15 10° NNW 19:00:09 31° NW 19:00:09 31° NW
Cosmos 1869 3.4 19:03:26 10° NNW 19:07:23 73° W 19:11:17 10° S
BREEZE-M DEB (TANK) 4.1 19:07:40 10° WNW 19:09:13 17° NW 19:09:13 17° NW
Cosmos 1340 3.9 19:09:57 10° NNW 19:13:32 41° W 19:17:04 10° SSW
Cosmos 1805 Rocket 4.2 19:09:21 10° S 19:12:24 45° S 19:12:24 45° S
ISS -1.7 19:12:39 10° SW 19:14:10 25° SW 19:14:10 25° SW
Cosmos 468 Rocket 4.2 19:12:37 10° SSW 19:17:42 65° WNW 19:19:43 36° N
Cosmos 1898 Rocket 3.8 19:17:03 10° NNW 19:22:19 66° WSW 19:26:08 19° S
Cosmos 1814 Rocket 3.9 19:19:07 10° SSW 19:24:23 87° S 19:24:23 87° S
Cosmos 1763 Rocket 3.6 19:23:58 10° SSW 19:28:14 63° SSW 19:28:14 63° SSW
Cosmos 990 Rocket 4.1 19:25:23 10° NNW 19:30:10 72° NW 19:30:10 72° NW
Cosmos 1339 Rocket 4.3 19:27:28 10° S 19:33:29 83° ESE 19:33:29 83° ESE
Envisat 4.1 19:39:16 35° NNW 19:39:16 35° NNW 19:42:12 10° NNW
Cosmos 1980 Rocket 4.0 19:39:31 10° NNW 19:41:10 19° N 19:41:10 19° N
ATLAS 5 CENTAUR R/B 4.5 19:45:12 10° N 19:46:04 13° N 19:46:04 13° N
Cosmos 2082 Rocket 2.9 19:49:45 10° SSW 19:53:51 47° SW 19:53:51 47° SW
CZ-4C R/B 3.3 20:00:36 10° WSW 20:04:51 39° WNW 20:04:51 39° WNW
Cosmos 1833 Rocket 4.1 20:10:35 10° SW 20:14:05 33° WSW 20:14:05 33° WSW
Lacrosse 5 4.4 20:27:53 10° W 20:29:33 18° WNW 20:29:33 18° WNW
